Regional Weather Roundup
Issued by NWS

Home | Current Version | Previous Version | Text Only | Print | Product List | Glossary Off
Versions: 1 2 3 4 5 6 7 8 9 10 11 12 13 14 15 16 17 18 19 20 21 22 23 24 25 26 27 28 29 30 31 32 33 34 35 36 37 38 39 40 41 42 43 44 45 46 47 48 49 50

000
ASUS43 KMPX 191801
RWRMN
WEATHER ROUNDUP FOR MINNESOTA
NATIONAL WEATHER SERVICE TWIN CITIES/CHANHASSEN MN
100 PM CDT THU APR 19 2018


NOTE: "FAIR" INDICATES FEW OR NO CLOUDS BELOW 12,000 FEET WITH NO
SIGNIFICANT WEATHER AND/OR OBSTRUCTIONS TO VISIBILITY. N/A MEANS
CURRENT SKY AND/OR WEATHER CONDITIONS ARE NOT AVAILABLE.

MNZ060>063-068>070-191900-
   Twin Cities Metro

CITY           SKY/WX    TMP DP  RH WIND       PRES   REMARKS
TWIN CITIES    FAIR      47  18  31 NW9       30.48S
6HR MIN TEMP:  28; 6HR MAX TEMP:  48;

ST PAUL        FAIR      46  17  31 W10       30.49S
CRYSTAL        FAIR      46  16  30 NW8       30.47S
BLAINE         SUNNY     48  18  29 NW6       30.47S
LAKEVILLE      FAIR      45  19  36 W8        30.48S
EDEN PRAIRIE   FAIR      48  17  29 W6        30.47S
6HR MIN TEMP:  29; 6HR MAX TEMP:  48;

SOUTH ST PAUL  FAIR      48  15  27 NW7       30.47F
LAKE ELMO      FAIR      45  19  36 NW5       30.48S
$$
MNZ001>005-007-008-013>017-022>024-027-028-191900-
   Northwest Minnesota

CITY           SKY/WX    TMP DP  RH WIND       PRES   REMARKS
BEMIDJI        FAIR      50  13  23 CALM      30.41F
HALLOCK        FAIR      54  30  40 SW3       30.41S
ROSEAU         FAIR      52  19  28 SW6       30.41S
WARROAD        FAIR      54  25  32 CALM      30.41S
THIEF RVR FALL FAIR      51  22  31 SW5       30.43S
CROOKSTON      FAIR      52  25  35 W3        30.43F
FOSSTON        FAIR      54  18  24 W5        30.43S
DETROIT LAKES  FAIR      52  19  28 CALM      30.44S
MOORHEAD       FAIR      52  28  40 SW7       30.44S
PARK RAPIDS    FAIR      50  15  24 S3        30.42S
MAHNOMEN       FAIR      51  21  30 CALM      30.42F
$$
MNZ006-009>011-018-025>026-191900-
   North Central Minnesota

CITY           SKY/WX    TMP DP  RH WIND       PRES   REMARKS
BAUDETTE       FAIR      52  16  24 N6        30.40F
FLAG ISLAND    FAIR      37  25  60 SE7       30.40F
INTL FALLS     FAIR      50  13  22 W7        30.40F
6HR MIN TEMP:  20; 6HR MAX TEMP:  51;

WASKISH        FAIR      52  16  24 W5        30.42S
BIG FORK       FAIR      54  10  17 N5        30.41S
LONGVILLE      FAIR      52   9  17 N3        30.42S
GRAND RAPIDS   FAIR      49  12  22 CALM      30.43F
CRANE LAKE     FAIR      48   9  20 N6        30.42F
ORR            FAIR      48   7  18 NW5       30.39S
COOK           FAIR      50  14  23 W6        30.41S
WALKER         FAIR      50  12  22 SE7       30.42S
$$
MNZ012-019>021-037-191900-
   Northeast Minnesota

CITY           SKY/WX    TMP DP  RH WIND       PRES   REMARKS
DULUTH         FAIR      49  14  24 N17       30.40S
6HR MIN TEMP:  22; 6HR MAX TEMP:  49;

ELY            FAIR      48   9  20 N3        30.39S
HIBBING        FAIR      48  14  25 NW7       30.41S
EVELETH        FAIR      49  14  25 NW8       30.42S
DULUTH HARBOR  FAIR      52  14  22 CALM      30.43S
TWO HARBORS    FAIR      59  27  29 NW6       30.38S
SILVER BAY     FAIR      48  19  32 S7        30.37F
GRAND MARAIS     N/A     41  27  57 W12       30.40R
G MARAIS ARPRT FAIR      46   3  17 NW6       30.36F
$$
MNZ029>031-032-039>041-046>048-054>057-064-191900-
   West Central Minnesota

CITY           SKY/WX    TMP DP  RH WIND       PRES   REMARKS
FERGUS FALLS   FAIR      50  34  53 SW7       30.44S
WHEATON        SUNNY     52  32  46 W8        30.48S
MORRIS         SUNNY     48  30  49 SW10      30.46F
ALEXANDRIA     FAIR      52  26  36 SW10      30.47R
ELBOW LAKE     FAIR      49  35  58 SW7       30.46F
WADENA         FAIR      48  28  46 SW5       30.44S
GLENWOOD       FAIR      50  23  34 W10       30.47S
APPLETON       SUNNY     46  21  36 S8        30.48S
BENSON         SUNNY     48  23  37 W10       30.50S
ORTONVILLE     SUNNY     52  30  43 S9        30.46F
MADISON        SUNNY     46  28  49 S7        30.48S
WILLMAR        FAIR      46  28  49 SW9       30.51S
$$
MNZ033>034-036-042>043-049>051-058-059-191900-
   Central Minnesota

CITY           SKY/WX    TMP DP  RH WIND       PRES   REMARKS
ST CLOUD       FAIR      51  20  29 W6        30.46S
6HR MIN TEMP:  25; 6HR MAX TEMP:  51;

SAUK CENTRE    FAIR      48  26  41 SW9       30.47S
PAYNESVILLE    FAIR      49  27  43 SW7       30.48S
AITKIN         FAIR      52  16  24 SW6       30.42S
PINE RIVER     FAIR      48  18  29 N3        30.45S
BRAINERD       FAIR      52  14  22 NW12      30.44S
STAPLES        FAIR      48  18  29 W7        30.45S
LONG PRAIRIE   FAIR      48  23  37 S6        30.46S
LITTLE FALLS   FAIR      48  10  21 SW7       30.46F
LITCHFIELD     FAIR      46  21  36 W8        30.49S
BUFFALO        FAIR      47  17  30 SW3       30.49S
MAPLE LAKE     FAIR      50  22  33 W7        30.49S
HUTCHINSON     FAIR      43  28  55 SW7       30.51S
$$
MNZ037-044-045-052-053-191900-
   East Central Minnesota

CITY           SKY/WX    TMP DP  RH WIND       PRES   REMARKS
PRINCETON      FAIR      52  18  25 W9        30.47S
MORA           FAIR      50  19  29 W8        30.46F
CAMBRIDGE        N/A     50  27  40 W10       30.47S
RUSH CITY      FAIR      49  19  30 SW7       30.46S
MOOSE LAKE     FAIR      50  18  27 N5        30.41S
HINCKLEY       FAIR      52  21  30 NW5G16    30.43F
CLOQUET        FAIR      50   9  18 W7        30.41S
MCGREGOR       FAIR      52  18  25 NW6       30.43S
$$
MNZ071>073-080-081-089-090-097-098-191900-
   Southwest Minnesota

CITY           SKY/WX    TMP DP  RH WIND       PRES   REMARKS
MONTEVIDEO     SUNNY     45  21  39 W9        30.50R
GRANITE FALLS  SUNNY     42  30  62 S6        30.52R
CANBY          SUNNY     46  23  40 SW8       30.50S
MARSHALL       SUNNY     42  22  44 S7        30.50R
REDWOOD FALLS  SUNNY     40  21  46 S8        30.50S
OLIVIA         SUNNY     45  28  53 SW8       30.50R
PIPESTONE      SUNNY    N/A N/A N/A S3        30.48S
WINDOM           N/A     45  19  36 CALM      30.50S
WORTHINGTON    SUNNY     35  22  58 E6        30.49F WCI  30
JACKSON        SUNNY     36  21  55 CALM      30.51S
TRACY          SUNNY     43  25  49 S7        30.49S
SLAYTON        SUNNY     39  24  54 S3        30.50R
$$
MNZ065>067-074>077-082>085-091>093-191900-
   South Central Minnesota

CITY           SKY/WX    TMP DP  RH WIND       PRES   REMARKS
MANKATO        FAIR      43  19  38 NW5       30.51S
NEW ULM        SUNNY     41  21  45 W3        30.51S
ST JAMES       SUNNY     39  19  45 CALM      30.53S
FAIRMONT       SUNNY     37  21  52 N6        30.52S
GLENCOE        FAIR      45  22  41 SW3       30.49S
OWATONNA       FAIR      39  23  52 NW5       30.49S
WASECA         FAIR      36  27  69 SW5       30.51S
ALBERT LEA     FAIR      37  16  41 N3        30.49S
$$
MNZ078>079-086>088-094>096-191900-
   Southeast Minnesota

CITY           SKY/WX    TMP DP  RH WIND       PRES   REMARKS
ROCHESTER      FAIR      39  26  59 NW8       30.47S
6HR MIN TEMP:  18; 6HR MAX TEMP:  39;

RED WING       FAIR      46  10  23 NW9       30.47S
STANTON        FAIR      44  19  37 CALM      30.48S
DODGE CENTER   FAIR      39  19  45 N6        30.48S
WINONA         FAIR      43  27  52 NW7       30.46S
AUSTIN           N/A     39  18  41 N7        30.49R
PRESTON        FAIR      38  23  53 NW7       30.47S
$$
ABBREVIATIONS USED IN REMARKS
   TC - TEMPERATURES IN CELSIUS
  WCI - WIND CHILL INDEX
   HX - HEAT INDEX
  VSB - VISIBILITY
$$




USA.gov is the U.S. government's official web portal to all federal, state and local government web resources and services.